Location: Unspecified
(37.3333°N, 0.0000°E)
Time: 08:37:40
(UTC+00:00)

Tiangong 2 - Pass Details

Date: 24 May 2019
Orbit: 376 x 388 km, 42.8° (Epoch: 26 June)

Event Time Altitude Azimuth Distance (km) Brightness Sun altitude
Rises 21:45:30 0° 293° (WNW) 2,234 5.8 -24.1°
Reaches altitude 10° 21:47:41 10° 303° (WNW) 1,382 4.7 -24.3°
Enters shadow 21:49:40 27° 335° (NNW) 755 3.2 -24.6°
